COSMOS 1275 DEB, 12698

Orbit data source: Space-Track

COSMOS 1275 DEB, 12698 is space debris in LEO originally from a launch on Thu, 04 Jun 1981 UTC launched from the Plesetsk Missile And Space Complex (PKMTR). Debris objects in space refer to the collection of defunct objects orbiting the Earth. Examples of debris include non-operational satellites, rocket bodies, and fragments generated from explosions, collisions, or faulty payload assembly.

Loading next visibility...
Identifier
12698, 1981-053AS
Orbit
LEO
Country
Flag of CISCIS
Related business
Manufacturer
Unknown
Mission
Spacecraft
Bus & Motor
Unknown
Mass
Unknown
Launch date (UTC)
1981-06-04 (45 years ago)
Launch vehicle
Unknown
Launch site
Plesetsk Missile And Space Complex (PKMTR)
Object type
Payload
Rocket body
Debris
Shape & HBR
Unknown shape, 0.1 m
Radar Cross Section
Medium (>0.1 m² and <1 m²)

Expand to show TLE details & history
Last TLE update: 18 hours ago

TLE from 18 hours ago
0 COSMOS 1275 DEB
1 12698U 81053AS  26254.21581095  .00002413  00000-0  82784-3 0  9995
2 12698  82.9001 339.8006 0011281 109.5282 250.7127 14.35800578303839
Epoch: 2026-09-11T05:10Z
TLE epoch observation values (Epoch: 2026-09-11T05:10:46.066Z)
Latitude
-0.00002°
Longitude
-88.1337°
Altitude
778.064 km
Speed
7.464 km/s
True Right ascension
22h 39m 12s
True Declination
0° 00' 00"
Sunlit
Object was in full shadow at epoch
Visualization orbit readout
Latitude
Unknown
Longitude
Unknown
Altitude
Unknown
Speed
Unknown
Apparent Right ascension
Unknown
Apparent Declination
Unknown
Sunlit
N/A
Visualization observer readout
Local Sidereal Time
15:32:24
Azimuth
Unknown
Elevation
Unknown
Doppler factor
Unknown
Orbital elements
Apogee altitude
777.537 km
Perigee altitude
761.411 km
Semi-major axis
7,147.611 km
Eccentricity
0.00113
Inclination
82.9001°
RAAN
339.8006°
Arg. of periapsis
109.5282°
True anomaly
250.59074°
Mean anomaly
250.7127°
Eccentric anomaly
250.65172°
Mean motion
3.59171 °/min
Orbital period
100.23 mins
BSTAR
0.00082784
Loading maneuver chart data...
Computing Atmospheric mass density...
Loading historical data...
Loading historical data...
Loading historical data...
Loading historical data...
Loading historical data...
Loading historical data...
Loading historical data...

Documentation

Showing up to 5 results
|